Volver al catálogo

SL-8 R/B

ActivoLEO
NORAD 13992·ROCKET BODY·🇷🇺 Russia

Lanzado Apr 12, 1983 desde Plesetsk Cosmodrome

Loading…

Próximos Pases (próximas 24 horas)

TLE

ActualizadoSource: Space-Track

Época: Sep 14, 2026, 16:17 UTC

1 13992U 83031B   26257.67878018  .00000099  00000-0  41728-4 0  9990
2 13992  74.0509 289.5903 0004415 165.5985 194.5296 14.37626743273371

Sigue SL-8 R/B en tiempo real con AllMySat

Download on the App Store